Location: Halle (Saale)
(51.4825°N, 11.9705°E)
Time: 10:02:52
(UTC+01:00)

ISS - Visible Passes

Search period start: 22 January 2022 00:00
Search period end: 01 February 2022 00:00
Orbit: 413 x 422 km, 51.6° (Epoch: 22 January)

Date Brightness Start Highest point End Pass type
(mag) Time Alt. Az. Time Alt. Az. Time Alt. Az.
22 Jan -3.0 18:15:38 10° SW 18:18:46 38° SSE 18:19:58 27° ESE visible
22 Jan -0.8 19:52:02 10° W 19:52:54 17° W 19:52:54 17° W visible
23 Jan -2.4 17:28:00 10° SSW 17:30:54 28° SSE 17:33:48 10° E visible
23 Jan -3.4 19:04:04 10° WSW 19:06:56 62° WSW 19:06:56 62° WSW visible
24 Jan -3.7 18:16:07 10° WSW 18:19:26 66° SSE 18:20:56 29° E visible
24 Jan -0.9 19:52:52 10° W 19:53:52 18° W 19:53:52 18° W visible
25 Jan -3.2 17:28:15 10° SW 17:31:30 51° SSE 17:34:46 10° E visible
25 Jan -3.5 19:04:51 10° W 19:07:51 68° W 19:07:51 68° W visible
26 Jan -3.8 18:16:52 10° W 18:20:13 89° S 18:21:49 28° E visible
26 Jan -1.0 19:53:40 10° W 19:54:45 19° W 19:54:45 19° W visible
27 Jan -3.7 17:28:54 10° WSW 17:32:14 79° SSE 17:35:35 10° E visible
27 Jan -3.7 19:05:41 10° W 19:08:45 73° W 19:08:45 73° W visible
28 Jan -3.8 18:17:41 10° W 18:21:03 85° N 18:22:46 26° E visible
28 Jan -1.1 19:54:29 10° W 19:55:42 20° W 19:55:42 20° W visible
29 Jan -3.8 17:29:42 10° W 17:33:02 86° N 17:36:24 10° E visible
29 Jan -3.6 19:06:29 10° W 19:09:46 65° SSW 19:09:46 65° SSW visible
30 Jan -3.8 18:18:30 10° W 18:21:51 80° SSW 18:23:53 22° ESE visible
30 Jan -1.1 19:55:27 10° W 19:56:49 19° WSW 19:56:49 19° WSW visible
31 Jan -2.7 19:07:21 10° W 19:10:30 38° SSW 19:11:01 35° S visible
